Flag for Sweden Weather past 2 weeks in Karlstad, Sweden

Now
55 °F

Cool.


Feels Like: 54 °F
Forecast: 51 / 62 °F
Wind: 7 mph from Northeast

Location: Karlstad

Current Time: Aug 29, 2014 at 10:44:00 PM

Latest Report: Aug 29, 2014 at 9:20 PM


Visibility: N/A

Pressure: 29.98 "Hg

Humidity: 82%

Dew point: 50 °F

Location of KarlstadLocation

Historic Weather in Karlstad — Graph

°F

Karlstad temperature yesterday

Maximum temperature yesterday: 66 °F (at 5:20 PM)
Minimum temperature yesterday: 45 °F (at 11:50 PM)
Average temperature yesterday: 55 °F

Past Weeks' High & Low Weather Summary

 TemperatureHumidityPressure
High68 °F (Aug 16, 12:50 PM)100% (Aug 14, 10:20 PM)30.01 "Hg (Aug 14, 10:20 PM)
Low41 °F (Aug 29, 5:50 AM)37% (Aug 27, 2:50 PM)29.18 "Hg (Aug 19, 6:50 AM)
Average55 °F86%29.62 "Hg
* Reported Aug 14 8:20 PM — Aug 29 8:50 PM, Karlstad, Weather by CustomWeather, © 2014

Note: Actual official high and low records may vary slightly from our data, if they occured in-between our weather recording intervals... More about our weather records

Advertising

Karlstad weather history for previous 24 hours

 ConditionsComfort  
Time TempWeatherWind HumidityBarometerVisibility
8:50 PM
Aug 29
57 °FSunny.6 mph72%29.98 "Hg10 mi
8:20 PM57 °FSunny.6 mph77%29.98 "Hg10 mi
7:50 PM59 °FSunny.7 mph72%29.98 "Hg10 mi
7:20 PM61 °FSunny.7 mph68%29.98 "Hg10 mi
6:50 PM61 °FPassing clouds.10 mph68%29.98 "HgN/A
6:20 PM64 °FPassing clouds.5 mph60%29.95 "HgN/A
5:50 PM64 °FPassing clouds.3 mph56%29.95 "HgN/A
5:20 PM64 °FPassing clouds.5 mph56%29.95 "HgN/A
4:50 PM66 °FPassing clouds.5 mph49%29.95 "HgN/A
4:20 PM68 °FPassing clouds.6 mph43%29.95 "HgN/A
3:50 PM66 °FPassing clouds.3 mph52%29.98 "HgN/A
3:20 PM68 °FPassing clouds.6 mph40%29.98 "HgN/A
2:50 PM66 °FPassing clouds.3 mph46%29.98 "HgN/A
2:20 PM66 °FPassing clouds.6 mph52%29.98 "HgN/A
1:50 PM64 °FPassing clouds.5 mph56%29.98 "HgN/A
1:20 PM64 °FPassing clouds.6 mph60%29.98 "HgN/A
12:50 PM64 °FPassing clouds.6 mph64%29.98 "HgN/A
12:20 PM63 °FPassing clouds.6 mph64%30.01 "HgN/A
11:50 AM63 °FPassing clouds.6 mph68%30.01 "HgN/A
11:20 AM61 °FPassing clouds.7 mph72%30.01 "HgN/A
10:50 AM59 °FPassing clouds.5 mph77%30.01 "HgN/A
10:20 AM57 °FPassing clouds.5 mph82%30.01 "HgN/A
9:50 AM54 °FPassing clouds.5 mph88%30.01 "HgN/A
9:20 AM54 °FSunny.6 mph88%30.01 "Hg10 mi
8:50 AM52 °FSunny.5 mph88%30.01 "Hg10 mi
8:20 AM50 °FSunny.7 mph94%30.01 "Hg10 mi
7:50 AM48 °FFog.5 mph100%30.01 "HgN/A
7:20 AM45 °FFog.5 mph100%30.01 "HgN/A
6:50 AM43 °FFog.3 mph100%30.01 "HgN/A
6:20 AM43 °FLight fog.3 mph100%30.01 "HgN/A
5:50 AM41 °FLight fog.5 mph100%30.01 "HgN/A
5:20 AM43 °FQuite cool.3 mph100%30.01 "Hg0 mi
4:50 AM45 °FQuite cool.2 mph100%30.01 "Hg4 mi
4:20 AM43 °FLight fog.5 mph100%29.98 "Hg4 mi
3:50 AM45 °FLight fog.2 mph100%29.98 "Hg1 mi
3:20 AM43 °FQuite cool.3 mph100%29.98 "Hg2 mi
2:50 AM43 °FFog.2 mph100%29.98 "Hg0 mi
2:20 AM43 °FFog.2 mph100%29.98 "Hg1 mi
1:50 AM45 °FQuite cool.3 mph100%29.98 "HgN/A
1:20 AM45 °FQuite cool.No wind100%29.98 "HgN/A
12:50 AM45 °FQuite cool.No wind100%29.98 "HgN/A
12:20 AM45 °FQuite cool.No wind93%29.98 "HgN/A
11:50 PM
Aug 28
45 °FQuite cool.No wind100%29.98 "HgN/A
11:20 PM46 °FCool.2 mph93%29.98 "HgN/A
10:50 PM46 °FCool.2 mph93%29.98 "HgN/A
10:20 PM48 °FCool.3 mph94%29.98 "HgN/A
Weather by CustomWeather, © 2014

See weather overviewHow to use our weather pages